[[{"header":{"parameterUnit":"m.s-1","parameterCategory":1,"la1":30.2991,"la2":30.254,"lo1":-89.0895,"lo2":-89.0444,"dy":0.0017,"dx":0.0017,"nx":28,"ny":28,"refTime":"2025-05-30T03:00:00:Z","depth":0,"parameterNumber":2,"parameterNumberName":"U-component_of_WINDS"},"data":[0,0,0,0,0,0,0,0,0,0,0,0,0,0,0,0,0,0,0,0,0,0,0,0,0,0,0,0,0,0,0,0,0,0,0,0,0,0,0,0,0,0,0,0,0,0,0,0,0,0,0,0,0,0,0,0,0,0,2.8511,2.8512,0,2.8611,2.8612,2.8613,2.8647,2.8647,2.8647,2.8646,2.8753,2.8756,2.8759,0,0,0,0,0,0,0,0,0,0,0,0,0,2.8356,2.8359,2.8511,2.8512,2.8513,2.861,2.8612,2.8613,2.8647,2.8647,2.8646,2.8646,2.8752,2.8756,2.876,0,0,0,0,0,0,0,0,0,0,0,0,0,2.8437,2.836,2.8511,2.8542,2.8546,2.861,2.8612,2.8613,2.8648,2.8647,2.8646,2.8646,2.8751,2.8756,2.876,2.8802,0,0,2.8775,2.8777,0,0,0,0,0,0,0,0,2.8432,2.8442,2.8536,2.854,2.8544,2.8616,2.8596,2.8677,2.8648,2.8609,2.8646,2.8646,2.8708,2.8717,2.8737,2.8807,2.8812,2.8775,2.8778,2.878,2.8782,0,0,0,0,0,0,0,2.8426,2.8438,2.8551,2.8538,2.8543,2.8553,2.8564,2.8612,2.8661,2.8612,2.8615,2.8626,2.871,2.8732,2.8739,2.8813,2.8775,2.878,2.8783,2.8784,2.8925,2.8926,0,0,0,0,0,0,2.8415,2.8433,2.8547,2.8553,2.8485,2.8556,2.8568,2.8594,2.8661,2.867,2.8627,2.8627,2.8724,2.8734,2.8743,2.8798,2.878,2.8785,2.8788,2.8924,2.8925,2.8926,0,0,0,0,0,0,2.8411,2.8425,2.8543,2.8494,2.851,2.856,2.8588,2.8596,2.8617,2.8671,2.8681,2.8639,2.8724,2.8737,2.8787,2.8802,2.8787,2.8791,2.8923,2.8925,2.8926,2.8906,0,0,0,0,0,0,2.8407,2.8423,2.8438,2.8494,2.8512,2.8584,2.8589,2.8598,2.8625,2.8627,2.8685,2.8695,2.8724,2.878,2.8792,2.8808,2.8795,2.8922,2.8924,2.8925,2.8906,2.8907,2.8908,0,0,0,0,0,2.8401,2.8429,2.8439,2.8452,2.8532,2.8584,2.8595,2.8627,2.8626,2.8642,2.8677,2.8693,2.8798,2.8785,2.8799,2.8817,2.8921,2.8923,2.8925,2.8906,2.8907,2.8908,0,0,0,0,0,0,2.8375,2.8437,2.8448,2.8495,2.8534,2.859,2.8612,2.8627,2.8669,2.8669,2.8709,2.8722,2.877,2.8799,2.8782,2.8862,2.8861,2.8866,2.8841,2.8843,2.8844,2.8836,2.8799,0,0,0,0,0,2.8374,2.841,2.8463,2.8499,2.8518,2.8561,2.8586,2.8607,2.865,2.8667,2.8706,2.8748,2.8791,2.8818,2.8861,2.891,2.8925,2.893,2.8931,2.8931,2.8935,2.8965,2.8969,2.8932,2.8932,2.8932,0,0,2.8374,2.8412,2.8433,2.8495,2.8528,2.8566,2.8575,2.8615,2.8644,2.8674,2.8724,2.8753,2.8804,2.8854,2.8879,2.888,2.8948,2.8933,2.8933,2.8937,2.8968,2.8971,2.8974,2.8934,2.8933,2.8933,0,0,2.8393,2.8424,2.8459,2.8491,2.8541,2.8569,2.8578,2.8632,2.8652,2.8703,2.8726,2.8763,2.8835,2.8871,2.8898,2.8932,2.8948,2.8945,2.8949,2.8978,2.8981,2.8984,2.8997,2.9002,2.8948,2.8948,2.8948,0,2.8386,2.8443,2.8475,2.8514,2.8541,2.8568,2.8605,2.8636,2.8697,2.8716,2.8716,2.8809,2.8844,2.8904,2.8913,2.8933,2.8946,2.8938,2.8978,2.8981,2.8984,2.8997,2.9002,2.8947,2.8948,2.8948,2.8948,0,2.8433,2.8473,2.8495,2.8552,2.8582,2.862,2.8659,2.8687,2.8706,2.8735,2.8788,2.8831,2.8884,2.89,2.8919,2.8963,2.8963,2.8969,2.897,2.8986,2.9,2.9005,2.8946,2.8947,2.8947,2.8947,0,0,2.8438,2.8513,2.8521,2.8548,2.8605,2.8636,2.8676,2.8726,2.8749,2.8791,2.8827,2.8888,2.8895,2.8926,2.895,2.8975,2.9001,2.898,2.8982,2.8983,2.9055,2.905,2.9055,2.9012,2.9014,2.9014,2.9051,0,2.8465,2.8535,2.8566,2.8623,2.8661,2.8688,2.8723,2.8763,2.8792,2.883,2.8862,2.8905,2.8911,2.893,2.8956,2.8992,2.9017,2.899,2.9048,2.905,2.9035,2.9062,2.9056,2.9089,2.9056,2.9057,2.9058,0,2.8506,2.8547,2.8607,2.8661,2.8678,2.8708,2.8758,2.8793,2.8839,2.8859,2.8894,2.8917,2.8962,2.8958,2.9022,2.9003,2.9029,2.9051,2.9053,2.906,2.9055,2.9071,2.91,2.9105,2.9066,2.9066,2.9065,0,2.8505,2.8575,2.8621,2.8643,2.8706,2.8727,2.8755,2.8801,2.883,2.8873,2.8893,2.8941,2.8968,2.9007,2.9043,2.9037,2.9104,2.9103,2.9123,2.9122,2.9137,2.9135,2.9171,2.9151,2.9151,2.9151,2.9151,0,2.8533,2.8569,2.8621,2.8649,2.8692,2.8728,2.8769,2.8799,2.884,2.8876,2.8903,2.8937,2.8982,2.9022,2.9051,2.9101,2.9112,2.9131,2.9138,2.9129,2.9127,2.9147,2.9146,2.9152,2.9152,2.9152,2.9152,0,2.8539,2.8575,2.8627,2.8682,2.8697,2.8726,2.8775,2.8805,2.8835,2.8881,2.8893,2.8942,2.899,2.903,2.9094,2.9114,2.9166,2.9174,2.915,2.9154,2.9172,2.917,2.9223,2.9232,2.9205,2.9205,2.9205,0,2.8554,2.8583,2.8642,2.8667,2.8694,2.8735,2.8764,2.8801,2.8831,2.8887,2.891,2.8961,2.9003,2.908,2.9122,2.9172,2.9182,2.9197,2.919,2.918,2.9184,2.9182,2.9186,2.9198,2.9198,2.9198,2.9198,0,2.8578,2.8595,2.8635,2.8683,2.8716,2.8756,2.8796,2.8815,2.8861,2.8893,2.8942,2.8975,2.904,2.9091,2.9145,2.9176,2.9196,2.92,2.9208,2.9199,2.9184,2.9194,2.9153,2.9199,2.9199,2.9199,2.9199,2.9199,2.8591,2.8618,2.8664,2.8709,2.8743,2.878,2.881,2.8845,2.8886,2.8941,2.8961,2.9012,2.9061,2.9135,2.9166,2.9208,2.9211,2.9221,2.9224,2.9226,2.9226,2.9176,2.9218,2.9218,2.9218,2.9218,2.9219,0,2.8618,2.8649,2.8689,2.8744,2.878,2.8793,2.8839,2.8868,2.8912,2.8955,2.8996,2.9054,2.9103,2.9149,2.9201,2.9226,2.9237,2.9239,2.9238,2.9245,2.922,2.9209,2.923,2.923,2.923,2.923,2.923,2.923,2.8636,2.8683,2.8706,2.8771,2.8802,2.8852,2.8877,2.8912,2.8946,2.9009,2.905,2.9079,2.9124,2.9179,2.9226,2.9239,2.9257,2.9257,2.9272,2.9248,2.9247,2.9245,2.9235,2.9261,2.9261,2.9294,2.9294,2.9295]},{"header":{"parameterUnit":"m.s-1","parameterCategory":1,"la1":30.2991,"la2":30.254,"lo1":-89.0895,"lo2":-89.0444,"dy":0.0017,"dx":0.0017,"nx":28,"ny":28,"refTime":"2025-05-30T03:00:00:Z","depth":0,"parameterNumber":3,"parameterNumberName":"V-component_of_WINDS"},"data":[0,0,0,0,0,0,0,0,0,0,0,0,0,0,0,0,0,0,0,0,0,0,0,0,0,0,0,0,0,0,0,0,0,0,0,0,0,0,0,0,0,0,0,0,0,0,0,0,0,0,0,0,0,0,0,0,0,0,-0.1641,-0.1641,0,-0.1623,-0.1623,-0.1623,-0.1628,-0.1628,-0.1628,-0.1629,-0.1611,-0.1611,-0.161,0,0,0,0,0,0,0,0,0,0,0,0,0,-0.1683,-0.1682,-0.1641,-0.1641,-0.164,-0.1623,-0.1623,-0.1622,-0.1628,-0.1628,-0.1629,-0.1629,-0.1612,-0.1611,-0.161,0,0,0,0,0,0,0,0,0,0,0,0,0,-0.1665,-0.1682,-0.1641,-0.1641,-0.1641,-0.1623,-0.1623,-0.1622,-0.1628,-0.1628,-0.1629,-0.1629,-0.1612,-0.1611,-0.161,-0.1591,0,0,-0.1606,-0.1606,0,0,0,0,0,0,0,0,-0.1666,-0.1663,-0.1641,-0.1641,-0.1641,-0.1628,-0.1631,-0.1612,-0.1627,-0.1633,-0.1629,-0.1629,-0.1617,-0.1615,-0.1611,-0.159,-0.159,-0.1606,-0.1605,-0.1605,-0.1604,0,0,0,0,0,0,0,-0.1667,-0.1664,-0.1634,-0.1641,-0.1641,-0.1643,-0.1641,-0.1628,-0.1622,-0.1632,-0.1633,-0.163,-0.1617,-0.1612,-0.161,-0.1589,-0.1606,-0.1605,-0.1604,-0.1604,-0.1557,-0.1556,0,0,0,0,0,0,-0.1668,-0.1665,-0.1634,-0.1633,-0.1655,-0.1642,-0.1639,-0.1632,-0.1622,-0.1621,-0.163,-0.1631,-0.1613,-0.1612,-0.161,-0.1589,-0.1605,-0.1604,-0.1603,-0.1557,-0.1557,-0.1556,0,0,0,0,0,0,-0.1669,-0.1665,-0.1635,-0.1649,-0.1646,-0.164,-0.1631,-0.1631,-0.1626,-0.162,-0.1619,-0.1626,-0.1614,-0.1611,-0.1596,-0.1589,-0.1603,-0.1602,-0.1558,-0.1557,-0.1556,-0.1548,0,0,0,0,0,0,-0.167,-0.1666,-0.1657,-0.1649,-0.1645,-0.1621,-0.1631,-0.163,-0.1624,-0.1625,-0.1616,-0.1615,-0.1614,-0.1598,-0.1595,-0.1587,-0.1601,-0.1559,-0.1558,-0.1557,-0.1548,-0.1547,-0.1545,0,0,0,0,0,-0.1672,-0.1655,-0.1657,-0.1653,-0.1634,-0.1621,-0.1618,-0.1617,-0.1623,-0.1616,-0.1613,-0.1615,-0.159,-0.1597,-0.1593,-0.1585,-0.1559,-0.1558,-0.1557,-0.1549,-0.1547,-0.1545,0,0,0,0,0,0,-0.1662,-0.1654,-0.1656,-0.1636,-0.1629,-0.1622,-0.1612,-0.1614,-0.1606,-0.1607,-0.1606,-0.1604,-0.159,-0.1586,-0.1593,-0.1568,-0.1576,-0.1574,-0.1571,-0.1569,-0.1567,-0.1569,-0.16,0,0,0,0,0,-0.1658,-0.1647,-0.164,-0.1624,-0.162,-0.1617,-0.1611,-0.1611,-0.1604,-0.1601,-0.1596,-0.159,-0.1581,-0.1574,-0.1566,-0.1548,-0.1548,-0.1541,-0.1539,-0.1538,-0.1536,-0.153,-0.1527,-0.1552,-0.1552,-0.1552,0,0,-0.1649,-0.1643,-0.1636,-0.1622,-0.1616,-0.1606,-0.1614,-0.1602,-0.1595,-0.1599,-0.1585,-0.1582,-0.1575,-0.1559,-0.1552,-0.1556,-0.153,-0.1536,-0.1535,-0.1535,-0.1528,-0.1526,-0.1524,-0.1551,-0.1552,-0.1552,0,0,-0.1627,-0.1621,-0.1608,-0.1603,-0.1595,-0.1593,-0.159,-0.1583,-0.1581,-0.1567,-0.1571,-0.1563,-0.1546,-0.1542,-0.1537,-0.1518,-0.1521,-0.1515,-0.1506,-0.1499,-0.1497,-0.1495,-0.149,-0.1488,-0.1514,-0.1514,-0.1514,0,-0.1617,-0.1601,-0.1601,-0.1589,-0.1584,-0.1588,-0.1575,-0.1571,-0.156,-0.1557,-0.1561,-0.1543,-0.1538,-0.1523,-0.1518,-0.1514,-0.1512,-0.1516,-0.1497,-0.1496,-0.1494,-0.1489,-0.1487,-0.1513,-0.1513,-0.1513,-0.1513,0,-0.159,-0.1579,-0.157,-0.156,-0.1554,-0.1542,-0.1541,-0.1535,-0.1536,-0.1535,-0.1522,-0.1517,-0.1509,-0.1505,-0.1505,-0.1491,-0.1493,-0.1497,-0.1505,-0.1491,-0.1486,-0.1484,-0.1512,-0.1512,-0.1513,-0.1513,0,0,-0.156,-0.1553,-0.155,-0.1547,-0.154,-0.1532,-0.1521,-0.1513,-0.1509,-0.1502,-0.1495,-0.1482,-0.1487,-0.1482,-0.1483,-0.1477,-0.1464,-0.1482,-0.1482,-0.148,-0.145,-0.1447,-0.1445,-0.1466,-0.1466,-0.1465,-0.1451,0,-0.154,-0.1521,-0.1521,-0.1504,-0.1495,-0.15,-0.1492,-0.1487,-0.1486,-0.1479,-0.1478,-0.147,-0.1476,-0.1473,-0.1468,-0.1467,-0.1458,-0.1468,-0.146,-0.146,-0.1462,-0.1442,-0.1439,-0.1425,-0.1449,-0.1448,-0.1448,0,-0.1512,-0.1506,-0.1488,-0.1485,-0.1481,-0.1473,-0.1467,-0.146,-0.1456,-0.1456,-0.1452,-0.1455,-0.1446,-0.1454,-0.1442,-0.1449,-0.1446,-0.1446,-0.1445,-0.1445,-0.1453,-0.1442,-0.142,-0.1419,-0.1445,-0.1445,-0.1445,0,-0.1495,-0.1481,-0.147,-0.1467,-0.1462,-0.1457,-0.1455,-0.1452,-0.1448,-0.1443,-0.1441,-0.1435,-0.1432,-0.1428,-0.1429,-0.1435,-0.1419,-0.1426,-0.1419,-0.1419,-0.1416,-0.1416,-0.1394,-0.1413,-0.1413,-0.1413,-0.1413,0,-0.1471,-0.1461,-0.1462,-0.1455,-0.1444,-0.1446,-0.1435,-0.1434,-0.1432,-0.1425,-0.1429,-0.1423,-0.1425,-0.142,-0.1421,-0.1413,-0.1411,-0.1412,-0.1413,-0.1412,-0.1412,-0.141,-0.1412,-0.1412,-0.1412,-0.1413,-0.1413,0,-0.145,-0.145,-0.1438,-0.1436,-0.1435,-0.1427,-0.1426,-0.142,-0.142,-0.1412,-0.1411,-0.1411,-0.1405,-0.1407,-0.14,-0.1401,-0.1391,-0.1392,-0.1393,-0.1393,-0.1387,-0.1388,-0.1364,-0.1361,-0.1381,-0.1381,-0.138,0,-0.1435,-0.1428,-0.1425,-0.1421,-0.1419,-0.1413,-0.1409,-0.1412,-0.1408,-0.1404,-0.1399,-0.1394,-0.139,-0.1381,-0.1382,-0.1378,-0.1379,-0.1371,-0.1379,-0.1379,-0.1381,-0.1382,-0.1382,-0.137,-0.137,-0.1369,-0.1369,0,-0.141,-0.1412,-0.1406,-0.1402,-0.1398,-0.1394,-0.1391,-0.1388,-0.139,-0.1386,-0.138,-0.1377,-0.1372,-0.1367,-0.1364,-0.1363,-0.1367,-0.1367,-0.1366,-0.1365,-0.1366,-0.1367,-0.1389,-0.1368,-0.1368,-0.1368,-0.1368,-0.1368,-0.1393,-0.1387,-0.1385,-0.138,-0.1378,-0.1375,-0.1371,-0.1371,-0.1366,-0.1362,-0.1364,-0.1358,-0.1357,-0.1353,-0.1352,-0.1348,-0.1352,-0.1349,-0.1348,-0.1348,-0.1348,-0.1366,-0.1348,-0.1348,-0.1348,-0.1348,-0.1348,0,-0.1369,-0.1369,-0.1364,-0.136,-0.1357,-0.1361,-0.1358,-0.1355,-0.135,-0.1349,-0.1345,-0.134,-0.1336,-0.1337,-0.1334,-0.1331,-0.1333,-0.1331,-0.1331,-0.1331,-0.1344,-0.1347,-0.1329,-0.1329,-0.1329,-0.1329,-0.1329,-0.1329,-0.1357,-0.1348,-0.135,-0.1341,-0.1341,-0.1335,-0.1334,-0.1332,-0.1331,-0.1325,-0.1323,-0.1323,-0.1323,-0.1321,-0.1318,-0.1319,-0.1318,-0.1315,-0.1316,-0.1328,-0.133,-0.1332,-0.1334,-0.1314,-0.1314,-0.1303,-0.1303,-0.1303]}]]